�������l�o���
Date,Time,MP-1(��Sv/h),MP-2(��Sv/h),MP-3(��Sv/h),MP-4(��Sv/h),MP-5(��Sv/h),MP-6(��Sv/h),MP-7(��Sv/h),MP-8(��Sv/h),����,����(m/s),���J
2023/11/18,00:00,0.501,0.759,0.476,0.951,0.677,0.311,0.558,0.522,��,6.9,��
2023/11/18,00:10,0.503,0.757,0.477,0.950,0.677,0.313,0.557,0.523,��,7.9,��
2023/11/18,00:20,0.502,0.759,0.475,0.952,0.676,0.313,0.558,0.522,��,8.9,��
2023/11/18,00:30,0.504,0.758,0.477,0.950,0.679,0.313,0.557,0.523,��,9.4,��
2023/11/18,00:40,0.504,0.760,0.478,0.951,0.676,0.312,0.557,0.522,��,9.5,��
2023/11/18,00:50,0.503,0.759,0.477,0.952,0.677,0.312,0.557,0.521,��,9.3,��
2023/11/18,01:00,0.504,0.761,0.477,0.951,0.678,0.312,0.558,0.524,��,7.6,��
2023/11/18,01:10,0.504,0.761,0.477,0.953,0.679,0.313,0.558,0.523,���쐼,6.3,��
2023/11/18,01:20,0.504,0.760,0.477,0.952,0.678,0.313,0.557,0.522,��,5.7,��
2023/11/18,01:30,0.503,0.760,0.477,0.951,0.678,0.312,0.558,0.521,��,4.9,��
2023/11/18,01:40,0.504,0.759,0.477,0.953,0.679,0.313,0.558,0.523,��,4.0,��
2023/11/18,01:50,0.505,0.759,0.478,0.954,0.678,0.313,0.557,0.522,���쐼,2.0,��
2023/11/18,02:00,0.504,0.762,0.477,0.953,0.677,0.312,0.559,0.523,�k�k��,1.2,��
2023/11/18,02:10,0.504,0.760,0.476,0.953,0.677,0.311,0.558,0.522,���쓌,0.9,��
2023/11/18,02:20,0.503,0.763,0.477,0.953,0.680,0.313,0.558,0.524,��쓌,1.9,��
2023/11/18,02:30,0.504,0.761,0.475,0.952,0.678,0.312,0.560,0.522,-,CALM,��
2023/11/18,02:40,0.504,0.762,0.477,0.954,0.679,0.313,0.559,0.522,���k��,1.5,��
2023/11/18,02:50,0.503,0.762,0.478,0.952,0.679,0.311,0.558,0.522,��쓌,1.2,��
2023/11/18,03:00,0.505,0.760,0.476,0.953,0.680,0.313,0.558,0.523,��,2.6,��
2023/11/18,03:10,0.503,0.761,0.476,0.953,0.679,0.313,0.559,0.524,�쐼,3.1,��
2023/11/18,03:20,0.504,0.761,0.477,0.950,0.679,0.312,0.560,0.522,��,4.8,��
2023/11/18,03:30,0.503,0.761,0.477,0.952,0.677,0.313,0.558,0.523,��,7.1,��
2023/11/18,03:40,0.503,0.762,0.478,0.952,0.678,0.313,0.559,0.523,��,6.8,��
2023/11/18,03:50,0.503,0.760,0.477,0.953,0.680,0.311,0.559,0.524,���쐼,4.7,��
2023/11/18,04:00,0.503,0.761,0.476,0.953,0.678,0.313,0.558,0.521,��,4.5,��
2023/11/18,04:10,0.505,0.760,0.476,0.951,0.680,0.312,0.558,0.521,��,4.2,��
2023/11/18,04:20,0.504,0.763,0.477,0.954,0.678,0.313,0.558,0.521,��쓌,3.7,��
2023/11/18,04:30,0.504,0.761,0.477,0.954,0.680,0.311,0.559,0.523,��쓌,5.0,��
2023/11/18,04:40,0.505,0.760,0.478,0.952,0.681,0.312,0.557,0.523,��,2.9,��
2023/11/18,04:50,0.506,0.760,0.478,0.955,0.679,0.312,0.558,0.521,��,3.5,��
2023/11/18,05:00,0.506,0.762,0.477,0.954,0.680,0.312,0.558,0.521,��쓌,3.3,��
2023/11/18,05:10,0.505,0.761,0.477,0.954,0.680,0.312,0.559,0.520,��쓌,3.6,��
2023/11/18,05:20,0.504,0.761,0.476,0.953,0.679,0.312,0.557,0.522,��쓌,4.3,��
2023/11/18,05:30,0.504,0.762,0.476,0.953,0.680,0.312,0.559,0.523,��,4.1,��
2023/11/18,05:40,0.504,0.761,0.478,0.954,0.681,0.314,0.559,0.522,��,3.3,��
2023/11/18,05:50,0.505,0.762,0.476,0.955,0.678,0.312,0.558,0.522,��,2.9,��
2023/11/18,06:00,0.503,0.763,0.477,0.953,0.681,0.312,0.558,0.521,��,2.6,��
2023/11/18,06:10,0.504,0.763,0.476,0.953,0.680,0.313,0.558,0.521,��쓌,2.3,��
2023/11/18,06:20,0.504,0.763,0.477,0.954,0.681,0.312,0.561,0.520,��,4.2,��
2023/11/18,06:30,0.505,0.763,0.476,0.953,0.679,0.311,0.558,0.522,��쓌,3.9,��
2023/11/18,06:40,0.505,0.763,0.478,0.954,0.680,0.313,0.557,0.522,��,5.5,��
2023/11/18,06:50,0.505,0.762,0.477,0.953,0.681,0.313,0.559,0.522,��,2.9,��
2023/11/18,07:00,0.505,0.763,0.475,0.955,0.681,0.313,0.560,0.522,�쐼,1.2,��
2023/11/18,07:10,0.504,0.760,0.477,0.953,0.680,0.312,0.560,0.521,��쓌,2.5,��
2023/11/18,07:20,0.504,0.762,0.477,0.955,0.681,0.312,0.558,0.522,��,3.6,��
2023/11/18,07:30,0.505,0.762,0.478,0.954,0.680,0.313,0.558,0.521,��쐼,4.9,��
2023/11/18,07:40,0.506,0.762,0.478,0.955,0.681,0.314,0.560,0.522,��쐼,6.6,��
2023/11/18,07:50,0.504,0.763,0.478,0.956,0.681,0.313,0.559,0.522,�쐼,7.2,��
2023/11/18,08:00,0.505,0.763,0.479,0.954,0.681,0.315,0.559,0.522,�쐼,4.7,��
2023/11/18,08:10,0.505,0.766,0.479,0.955,0.683,0.315,0.559,0.521,��쐼,4.1,��
2023/11/18,08:20,0.506,0.763,0.478,0.955,0.683,0.314,0.561,0.523,��쐼,3.4,��
2023/11/18,08:30,0.506,0.765,0.478,0.954,0.681,0.314,0.559,0.522,��,3.3,��
2023/11/18,08:40,0.505,0.763,0.478,0.956,0.683,0.313,0.559,0.524,�쐼,1.1,��
2023/11/18,08:50,0.507,0.765,0.479,0.955,0.682,0.314,0.559,0.520,���쐼,4.0,��
2023/11/18,09:00,0.506,0.766,0.478,0.954,0.683,0.314,0.561,0.522,�쐼,4.3,��
2023/11/18,09:10,0.506,0.766,0.479,0.956,0.682,0.313,0.560,0.522,��쐼,3.9,��
2023/11/18,09:20,0.507,0.766,0.479,0.954,0.682,0.313,0.559,0.522,�쐼,4.1,��
2023/11/18,09:30,0.506,0.764,0.479,0.955,0.683,0.315,0.559,0.522,��쐼,6.2,��
2023/11/18,09:40,0.506,0.765,0.480,0.955,0.684,0.314,0.558,0.522,�쐼,6.6,��
2023/11/18,09:50,0.507,0.764,0.481,0.956,0.683,0.314,0.561,0.522,�쐼,6.4,��
2023/11/18,10:00,0.507,0.765,0.481,0.957,0.684,0.314,0.558,0.523,��쐼,7.6,��
2023/11/18,10:10,0.505,0.766,0.480,0.958,0.685,0.312,0.560,0.524,��쐼,7.1,��
2023/11/18,10:20,0.507,0.764,0.481,0.958,0.685,0.314,0.561,0.524,�쐼,6.9,��
2023/11/18,10:30,0.506,0.764,0.480,0.955,0.684,0.313,0.560,0.524,�쐼,6.0,��
2023/11/18,10:40,0.507,0.765,0.483,0.959,0.684,0.314,0.560,0.524,��쐼,5.2,��
2023/11/18,10:50,0.505,0.765,0.481,0.956,0.684,0.313,0.560,0.525,�쐼,4.2,��
2023/11/18,11:00,0.507,0.766,0.482,0.959,0.684,0.314,0.561,0.524,�쐼,5.5,��
2023/11/18,11:10,0.508,0.768,0.480,0.960,0.683,0.313,0.559,0.524,�쐼,6.6,��
2023/11/18,11:20,0.507,0.765,0.481,0.957,0.683,0.312,0.560,0.524,�쐼,6.3,��
2023/11/18,11:30,0.507,0.768,0.482,0.959,0.685,0.313,0.560,0.523,���쐼,5.5,��
2023/11/18,11:40,0.504,0.766,0.481,0.961,0.687,0.314,0.560,0.524,�쐼,4.9,��
2023/11/18,11:50,0.507,0.766,0.481,0.959,0.686,0.313,0.559,0.526,���쐼,3.9,��
2023/11/18,12:00,0.508,0.769,0.481,0.959,0.685,0.314,0.560,0.525,���쐼,4.3,��
2023/11/18,12:10,0.507,0.767,0.481,0.959,0.685,0.317,0.561,0.526,��,4.9,��
2023/11/18,12:20,0.508,0.767,0.482,0.960,0.686,0.316,0.561,0.523,��,6.5,��
2023/11/18,12:30,0.509,0.767,0.482,0.961,0.687,0.317,0.560,0.522,���쐼,6.2,��
2023/11/18,12:40,0.511,0.768,0.482,0.961,0.687,0.316,0.561,0.523,���쐼,3.6,��
2023/11/18,12:50,0.509,0.768,0.482,0.961,0.685,0.315,0.562,0.523,��,3.2,��
2023/11/18,13:00,0.508,0.769,0.481,0.959,0.686,0.315,0.561,0.524,�쐼,2.8,��
2023/11/18,13:10,0.509,0.768,0.482,0.960,0.687,0.314,0.561,0.525,���쐼,4.4,��
2023/11/18,13:20,0.509,0.769,0.482,0.960,0.686,0.315,0.561,0.524,�쐼,6.2,��
2023/11/18,13:30,0.509,0.766,0.482,0.961,0.686,0.315,0.563,0.523,���쐼,4.6,��
2023/11/18,13:40,0.511,0.770,0.482,0.962,0.687,0.316,0.561,0.525,�쐼,4.0,��
2023/11/18,13:50,0.510,0.769,0.483,0.963,0.686,0.316,0.561,0.525,�쐼,3.6,��
2023/11/18,14:00,0.509,0.769,0.483,0.960,0.686,0.314,0.562,0.524,�쐼,3.3,��
2023/11/18,14:10,0.508,0.773,0.482,0.962,0.688,0.316,0.560,0.523,�쐼,3.1,��
2023/11/18,14:20,0.510,0.771,0.484,0.961,0.689,0.316,0.563,0.525,���k��,4.7,��
2023/11/18,14:30,0.507,0.768,0.483,0.962,0.687,0.315,0.564,0.522,���k��,5.9,��
2023/11/18,14:40,0.509,0.769,0.484,0.964,0.689,0.316,0.562,0.524,���k��,5.3,��
2023/11/18,14:50,0.509,0.770,0.485,0.961,0.688,0.316,0.561,0.522,��,4.7,��
2023/11/18,15:00,0.509,0.772,0.484,0.963,0.687,0.314,0.563,0.525,���k��,4.6,��
2023/11/18,15:10,0.508,0.771,0.484,0.962,0.689,0.316,0.562,0.525,���k��,5.1,��
2023/11/18,15:20,0.508,0.772,0.482,0.962,0.690,0.316,0.562,0.524,���k��,7.3,��
2023/11/18,15:30,0.508,0.771,0.484,0.962,0.688,0.314,0.563,0.525,���k��,9.7,��
2023/11/18,15:40,0.509,0.772,0.483,0.962,0.686,0.315,0.561,0.525,��,10.9,��
2023/11/18,15:50,0.509,0.771,0.483,0.961,0.689,0.315,0.563,0.526,���k��,10.0,��
2023/11/18,16:00,0.508,0.773,0.483,0.962,0.688,0.313,0.562,0.525,���k��,10.5,��
2023/11/18,16:10,0.510,0.773,0.484,0.961,0.687,0.316,0.561,0.526,��,10.0,��
2023/11/18,16:20,0.511,0.773,0.485,0.963,0.688,0.314,0.562,0.526,���k��,10.5,��
2023/11/18,16:30,0.512,0.774,0.486,0.965,0.688,0.314,0.560,0.526,��,12.1,��
2023/11/18,16:40,0.512,0.773,0.484,0.966,0.690,0.315,0.560,0.526,���쐼,10.2,��
2023/11/18,16:50,0.513,0.774,0.485,0.967,0.689,0.316,0.561,0.528,��,10.0,�L
2023/11/18,17:00,0.513,0.774,0.486,0.966,0.691,0.316,0.560,0.526,��,10.0,�L
2023/11/18,17:10,0.513,0.775,0.487,0.966,0.692,0.315,0.562,0.526,��,9.7,�L
2023/11/18,17:20,0.513,0.775,0.485,0.967,0.693,0.315,0.562,0.528,��,10.2,�L
2023/11/18,17:30,0.513,0.774,0.485,0.966,0.693,0.316,0.560,0.529,��,10.6,��
2023/11/18,17:40,0.514,0.775,0.485,0.965,0.692,0.317,0.561,0.529,���쐼,8.0,��
2023/11/18,17:50,0.512,0.775,0.485,0.967,0.693,0.316,0.561,0.527,��,9.6,��
2023/11/18,18:00,0.512,0.774,0.485,0.966,0.694,0.316,0.562,0.528,��,8.8,��
2023/11/18,18:10,0.513,0.775,0.486,0.969,0.692,0.315,0.563,0.528,���k��,7.5,��
2023/11/18,18:20,0.513,0.774,0.485,0.971,0.693,0.315,0.562,0.526,��,7.3,��
2023/11/18,18:30,0.513,0.775,0.485,0.968,0.695,0.314,0.561,0.528,��,8.4,��
2023/11/18,18:40,0.514,0.774,0.485,0.968,0.694,0.315,0.562,0.527,��,9.4,��
2023/11/18,18:50,0.512,0.775,0.485,0.968,0.695,0.315,0.560,0.529,��,7.0,��
2023/11/18,19:00,0.514,0.775,0.486,0.968,0.692,0.315,0.562,0.527,���k��,6.8,��
2023/11/18,19:10,0.513,0.775,0.485,0.967,0.693,0.316,0.562,0.528,�k��,5.7,��
2023/11/18,19:20,0.513,0.776,0.484,0.969,0.693,0.315,0.562,0.527,�k��,4.5,��
2023/11/18,19:30,0.512,0.774,0.484,0.968,0.693,0.314,0.562,0.527,�k�k��,6.4,��
2023/11/18,19:40,0.513,0.775,0.486,0.967,0.695,0.316,0.561,0.529,�k��,5.7,��
2023/11/18,19:50,0.513,0.774,0.485,0.966,0.693,0.316,0.561,0.528,���k��,7.5,��
2023/11/18,20:00,0.514,0.774,0.486,0.970,0.692,0.315,0.562,0.527,���k��,6.6,��
2023/11/18,20:10,0.513,0.773,0.486,0.966,0.692,0.316,0.561,0.528,�k��,7.3,��
2023/11/18,20:20,0.512,0.775,0.485,0.966,0.693,0.315,0.562,0.527,���k��,9.5,��
2023/11/18,20:30,0.513,0.773,0.485,0.969,0.692,0.315,0.563,0.526,���k��,10.2,��
2023/11/18,20:40,0.512,0.775,0.485,0.969,0.695,0.316,0.562,0.526,�k��,9.8,��
2023/11/18,20:50,0.513,0.775,0.485,0.968,0.693,0.316,0.561,0.527,���k��,5.6,��
2023/11/18,21:00,0.512,0.775,0.484,0.967,0.694,0.316,0.563,0.527,�k��,7.2,��
2023/11/18,21:10,0.511,0.774,0.485,0.968,0.693,0.313,0.562,0.527,�k��,8.7,��
2023/11/18,21:20,0.512,0.774,0.485,0.967,0.693,0.316,0.562,0.526,���k��,5.3,��
2023/11/18,21:30,0.512,0.773,0.486,0.967,0.693,0.314,0.563,0.525,���k��,5.6,��
2023/11/18,21:40,0.511,0.771,0.486,0.967,0.693,0.315,0.565,0.525,���k��,6.2,��
2023/11/18,21:50,0.511,0.775,0.484,0.967,0.691,0.315,0.564,0.526,�k��,4.8,��
2023/11/18,22:00,0.511,0.773,0.485,0.966,0.693,0.314,0.564,0.526,��,3.3,��
2023/11/18,22:10,0.512,0.773,0.486,0.967,0.692,0.315,0.564,0.526,��,8.5,��
2023/11/18,22:20,0.512,0.772,0.485,0.968,0.691,0.315,0.564,0.526,��,8.3,��
2023/11/18,22:30,0.514,0.774,0.484,0.967,0.693,0.315,0.565,0.527,��,9.7,��
2023/11/18,22:40,0.512,0.773,0.486,0.967,0.693,0.314,0.565,0.527,��,11.3,��
2023/11/18,22:50,0.512,0.773,0.484,0.968,0.692,0.315,0.564,0.526,��,15.5,��
2023/11/18,23:00,0.513,0.772,0.486,0.967,0.693,0.316,0.565,0.526,���쐼,12.1,��
2023/11/18,23:10,0.511,0.773,0.484,0.967,0.694,0.314,0.564,0.525,���쐼,10.7,�L
2023/11/18,23:20,0.512,0.774,0.485,0.969,0.695,0.316,0.565,0.527,���쐼,11.3,��
2023/11/18,23:30,0.513,0.774,0.485,0.970,0.696,0.316,0.563,0.525,���쐼,9.5,��
2023/11/18,23:40,0.513,0.776,0.484,0.969,0.694,0.316,0.564,0.527,�쐼,7.4,��
2023/11/18,23:50,0.514,0.774,0.485,0.969,0.692,0.315,0.564,0.526,�쐼,6.3,�L
